INTELSAT 25 (IS-25) (33153 NORAD) Tracking and Keplerian Element Data

This shows tracking and keplerian element data for the satellite.

Feedback or suggestion? Click here.




ElementValue
Catalog33153
NameINTELSAT 25 (IS-25)
Epoch Orbit6390
Epoch Day354.13586529
Epoch Year2025
RAAN82.5709
Inclination2.2457
Eccentricity0.00048
Argument of Perigee187.3325
Mean Anonmoly196.4726
Mean Motion1.00270174
Decay Rate-2.02E-06
L11 33153U 08034A 25354.13586529 -.00000202 00000+0 00000+0 0 9991
L22 33153 2.2457 82.5709 0004800 187.3325 196.4726 1.00270174 63904



Live tracking and technical data element details for INTELSAT 25 (IS-25) (NORAD 33153). INTELSAT 25 (IS-25) can be tracked NOW for your location showing map with azimuth and elevation plus other details from your city location.







IsCatalogInMostPopularTable: catalog: 33153, numindb: 696
Update: records affected: 1



GetName: 33153 INTELSAT 25 (IS-25)

Hit Count: updated at: Thu, 21 May 2026 11:57:09 GMT